When you browse on this site, cookies collect data to enhance your experience and personalize the content and advertising you see.
Visit our Privacy Policy to learn more. By continuing to use the site, you agree to this use of cookies and data.
  • In United Kingdom
  • List of Countries
  • For 7 days
  • Water Temperature
  • Weather Map
  • Weather Widgets
  • user-avatar
    Login

    Hourly Weather Callao

    Today, 16 September, Monday

    Time Temperature Precipitation Wind Pressure Humidity
    00:00 +9°C° 0 mm 0 mps 540 mmHg 67%
    01:00 +9°C° 0 mm 0 mps 540 mmHg 67%
    02:00 +8°C° 0 mm 0 mps 539 mmHg 67%
    03:00 +8°C° 0 mm 0 mps 539 mmHg 67%
    04:00 +7°C° 0 mm 0 mps 538 mmHg 67%
    05:00 +9°C° 0 mm 0 mps 540 mmHg 60%
    06:00 +11°C° 0 mm 1 mps 541 mmHg 53%
    07:00 +12°C° 0 mm 1 mps 542 mmHg 46%
    08:00 +14°C° 0 mm 2 mps 543 mmHg 42%
    09:00 +15°C° 0 mm 2 mps 543 mmHg 38%
    10:00 +17°C° 0 mm 3 mps 544 mmHg 35%
    11:00 +17°C° 0 mm 4 mps 544 mmHg 36%
    12:00 +17°C° 0 mm 4 mps 544 mmHg 36%
    13:00 +17°C° 0 mm 4 mps 543 mmHg 37%
    14:00 +17°C° 0 mm 4 mps 543 mmHg 41%
    15:00 +15°C° 0 mm 4 mps 542 mmHg 45%
    16:00 +14°C° 0 mm 3 mps 541 mmHg 48%
    17:00 +14°C° 0 mm 2 mps 541 mmHg 52%
    18:00 +13°C° 0 mm 1 mps 541 mmHg 56%
    19:00 +11°C° 0 mm 1 mps 541 mmHg 60%
    20:00 +11°C° 0 mm 1 mps 540 mmHg 59%
    21:00 +10°C° 0 mm 1 mps 540 mmHg 59%
    22:00 +10°C° 0 mm 1 mps 540 mmHg 59%
    23:00 +9°C° 0 mm 1 mps 540 mmHg 59%

    Tomorrow, 17 September, Tuesday

    Time Temperature Precipitation Wind Pressure Humidity
    00:00 +9°C° 0 mm 1 mps 540 mmHg 59%
    01:00 +9°C° 0 mm 1 mps 539 mmHg 59%
    02:00 +7°C° 0 mm 2 mps 539 mmHg 58%
    03:00 +7°C° 0 mm 2 mps 539 mmHg 57%
    04:00 +6°C° 0 mm 2 mps 538 mmHg 55%
    05:00 +8°C° 0 mm 2 mps 539 mmHg 49%
    06:00 +9°C° 0 mm 2 mps 541 mmHg 43%
    07:00 +10°C° 0 mm 2 mps 542 mmHg 37%
    08:00 +13°C° 0 mm 2 mps 543 mmHg 34%
    09:00 +14°C° 0 mm 3 mps 544 mmHg 31%
    10:00 +16°C° 0 mm 3 mps 545 mmHg 28%
    11:00 +17°C° 0 mm 3 mps 545 mmHg 29%
    12:00 +17°C° 0 mm 4 mps 544 mmHg 30%
    13:00 +18°C° 0 mm 4 mps 544 mmHg 30%
    14:00 +17°C° 0 mm 4 mps 543 mmHg 34%
    15:00 +15°C° 0 mm 4 mps 543 mmHg 38%
    16:00 +14°C° 0 mm 3 mps 542 mmHg 42%
    17:00 +14°C° 0 mm 2 mps 542 mmHg 48%
    18:00 +12°C° 0 mm 1 mps 541 mmHg 54%
    19:00 +10°C° 0 mm 0 mps 540 mmHg 60%
    20:00 +9°C° 0 mm 0 mps 540 mmHg 59%
    21:00 +9°C° 0 mm 0 mps 540 mmHg 59%
    22:00 +9°C° 0 mm 0 mps 540 mmHg 59%
    23:00 +8°C° 0 mm 0 mps 540 mmHg 60%

    Day after tomorrow, 18 September, Wednesday

    Time Temperature Precipitation Wind Pressure Humidity
    00:00 +8°C° 0 mm 0 mps 539 mmHg 61%
    01:00 +8°C° 0 mm 0 mps 539 mmHg 63%
    02:00 +7°C° 0 mm 0 mps 539 mmHg 62%
    03:00 +7°C° 0 mm 0 mps 538 mmHg 62%
    04:00 +7°C° 0 mm 0 mps 538 mmHg 61%
    05:00 +8°C° 0 mm 0 mps 539 mmHg 55%
    06:00 +11°C° 0 mm 1 mps 540 mmHg 49%
    07:00 +12°C° 0 mm 1 mps 542 mmHg 42%
    08:00 +14°C° 0 mm 2 mps 542 mmHg 39%
    09:00 +15°C° 0 mm 2 mps 543 mmHg 36%
    10:00 +16°C° 0 mm 3 mps 544 mmHg 33%
    11:00 +17°C° 0 mm 4 mps 543 mmHg 33%
    12:00 +17°C° 0 mm 4 mps 543 mmHg 34%
    13:00 +17°C° 0 mm 4 mps 543 mmHg 34%
    14:00 +17°C° 0 mm 4 mps 542 mmHg 38%
    15:00 +15°C° 0 mm 4 mps 541 mmHg 42%
    16:00 +14°C° 0 mm 3 mps 541 mmHg 47%
    17:00 +13°C° 0 mm 2 mps 540 mmHg 53%
    18:00 +12°C° 0 mm 1 mps 540 mmHg 59%
    19:00 +10°C° 0 mm 0 mps 539 mmHg 66%
    20:00 +9°C° 0 mm 0 mps 539 mmHg 67%
    21:00 +9°C° 0 mm 0 mps 539 mmHg 69%
    22:00 +8°C° 0 mm 0 mps 540 mmHg 70%
    23:00 +8°C° 0 mm 0 mps 539 mmHg 72%

    19 September, Thursday

    Time Temperature Precipitation Wind Pressure Humidity
    00:00 +8°C° 0 mm 0 mps 539 mmHg 73%
    01:00 +7°C° 0 mm 0 mps 538 mmHg 74%
    02:00 +7°C° 0 mm 0 mps 538 mmHg 75%
    03:00 +7°C° 0 mm 0 mps 538 mmHg 76%
    04:00 +6°C° 0 mm 0 mps 537 mmHg 77%
    05:00 +7°C° 0 mm 0 mps 538 mmHg 70%
    06:00 +9°C° 0 mm 0 mps 540 mmHg 64%
    07:00 +10°C° 0 mm 0 mps 541 mmHg 57%
    08:00 +12°C° 0 mm 1 mps 541 mmHg 53%
    09:00 +13°C° 0 mm 2 mps 542 mmHg 49%
    10:00 +14°C° 0 mm 3 mps 543 mmHg 44%
    11:00 +14°C° 0 mm 4 mps 542 mmHg 45%
    12:00 +14°C° 0 mm 4 mps 542 mmHg 45%
    13:00 +15°C° 0 mm 4 mps 542 mmHg 45%
    14:00 +14°C° 0.3 mm 4 mps 541 mmHg 51%
    15:00 +13°C° 0.3 mm 3 mps 541 mmHg 57%
    16:00 +12°C° 0.3 mm 3 mps 540 mmHg 62%
    17:00 +12°C° 0.5 mm 2 mps 540 mmHg 67%
    18:00 +11°C° 0.5 mm 1 mps 540 mmHg 72%
    19:00 +11°C° 0.5 mm 1 mps 539 mmHg 77%
    20:00 +10°C° 0 mm 1 mps 540 mmHg 78%
    21:00 +9°C° 0 mm 0 mps 540 mmHg 79%
    22:00 +9°C° 0 mm 0 mps 540 mmHg 80%
    23:00 +8°C° 0 mm 0 mps 540 mmHg 81%

    20 September, Friday

    Time Temperature Precipitation Wind Pressure Humidity
    00:00 +8°C° 0 mm 0 mps 539 mmHg 81%
    01:00 +8°C° 0 mm 0 mps 539 mmHg 82%
    02:00 +7°C° 0 mm 0 mps 539 mmHg 82%
    03:00 +7°C° 0 mm 0 mps 539 mmHg 82%
    04:00 +7°C° 0 mm 0 mps 538 mmHg 82%
    05:00 +8°C° 0 mm 0 mps 539 mmHg 77%
    06:00 +9°C° 0 mm 0 mps 540 mmHg 72%
    07:00 +9°C° 0 mm 0 mps 541 mmHg 67%
    08:00 +12°C° 0 mm 1 mps 542 mmHg 61%
    09:00 +13°C° 0 mm 2 mps 542 mmHg 55%
    10:00 +14°C° 0 mm 3 mps 543 mmHg 49%
    11:00 +14°C° 0 mm 4 mps 543 mmHg 50%
    12:00 +14°C° 0 mm 4 mps 543 mmHg 50%
    13:00 +15°C° 0 mm 4 mps 542 mmHg 51%
    14:00 +14°C° 0.1 mm 4 mps 542 mmHg 54%
    15:00 +13°C° 0.1 mm 4 mps 541 mmHg 58%
    16:00 +13°C° 0.1 mm 3 mps 540 mmHg 62%
    17:00 +13°C° 0.1 mm 2 mps 540 mmHg 66%
    18:00 +12°C° 0.1 mm 1 mps 540 mmHg 71%
    19:00 +10°C° 0.1 mm 0 mps 540 mmHg 75%
    20:00 +10°C° 0 mm 0 mps 540 mmHg 75%
    21:00 +9°C° 0 mm 0 mps 540 mmHg 76%
    22:00 +9°C° 0 mm 0 mps 541 mmHg 76%
    23:00 +9°C° 0 mm 0 mps 540 mmHg 76%

    21 September, Saturday

    Time Temperature Precipitation Wind Pressure Humidity
    00:00 +9°C° 0 mm 0 mps 540 mmHg 77%
    01:00 +8°C° 0 mm 0 mps 540 mmHg 77%
    02:00 +8°C° 0 mm 0 mps 539 mmHg 77%
    03:00 +9°C° 0 mm 1 mps 539 mmHg 77%
    04:00 +9°C° 0 mm 1 mps 539 mmHg 77%
    05:00 +10°C° 0 mm 1 mps 540 mmHg 73%
    06:00 +10°C° 0 mm 1 mps 541 mmHg 68%
    07:00 +11°C° 0 mm 1 mps 541 mmHg 64%
    08:00 +13°C° 0 mm 1 mps 542 mmHg 59%
    09:00 +14°C° 0 mm 2 mps 543 mmHg 55%
    10:00 +15°C° 0 mm 2 mps 544 mmHg 50%
    11:00 +14°C° 0.1 mm 3 mps 544 mmHg 51%
    12:00 +16°C° 0.1 mm 3 mps 543 mmHg 53%
    13:00 +15°C° 0.1 mm 4 mps 543 mmHg 54%
    14:00 +14°C° 0.3 mm 3 mps 542 mmHg 59%
    15:00 +13°C° 0.3 mm 3 mps 541 mmHg 63%
    16:00 +12°C° 0.3 mm 3 mps 540 mmHg 68%
    17:00 +12°C° 0.2 mm 2 mps 540 mmHg 72%
    18:00 +11°C° 0.2 mm 1 mps 540 mmHg 75%
    19:00 +10°C° 0.2 mm 0 mps 540 mmHg 79%
    20:00 +10°C° 0.1 mm 0 mps 541 mmHg 78%
    21:00 +10°C° 0.1 mm 0 mps 541 mmHg 77%
    22:00 +10°C° 0.1 mm 0 mps 541 mmHg 76%
    23:00 +9°C° 0 mm 0 mps 541 mmHg 77%
    Show more